Location: Zapote
(9.9191°N, 84.0597°W)
Time: 17:28:01
(UTC-06:00)

Transit 2A - Pass Details

Date: 07 March 2021
Orbit: 602 x 957 km, 66.7° (Epoch: 16 April)

Event Time Altitude Azimuth Distance (km) Brightness Sun altitude
Rises 16:13:34 0° 212° (SSW) 3,537 10.0 22.0°
Reaches altitude 10° 16:16:15 10° 217° (SW) 2,554 9.5 21.4°
Maximum altitude 16:21:55 48° 290° (WNW) 1,088 7.9 20.0°
Drops below altitude 10° 16:27:06 10° 4° (N) 2,329 8.4 18.7°
Sets 16:29:28 0° 10° (N) 3,199 9.0 18.1°
